Flag for Germany Weather past 2 weeks in Ahrensburg, Schleswig-Holstein, Germany

Now
43 °F

Passing clouds.


Feels Like: 40 °F
Forecast: 37 / 47 °F
Wind: 5 mph from West

Location: Hamburg-Fuhlsbuettel

Current Time: Mar 5, 2015 at 8:11:43 PM

Latest Report: Mar 5, 2015 at 7:50 PM


Visibility: N/A

Pressure: 30.51 "Hg

Humidity: 76%

Dew point: 36 °F

Location of AhrensburgLocation

Historic Weather in Ahrensburg — Graph

°F

Ahrensburg temperature yesterday

Maximum temperature yesterday: 41 °F (at 10:50 AM)
Minimum temperature yesterday: 34 °F (at 3:50 AM)
Average temperature yesterday: 38 °F

Past Weeks' High & Low Weather Summary

 TemperatureHumidityPressure
High46 °F (Feb 25, 3:20 PM)100% (Feb 19, 6:20 AM)30.54 "Hg (Feb 19, 6:20 AM)
Low32 °F (Feb 19, 5:20 AM)57% (Feb 25, 3:20 PM)29.24 "Hg (Feb 21, 9:50 AM)
Average39 °F85%29.82 "Hg
* Reported Feb 18 6:20 PM — Mar 5 6:50 PM, Ahrensburg, Weather by CustomWeather, © 2015

Note: Actual official high and low records may vary slightly from our data, if they occured in-between our weather recording intervals... More about our weather records

Advertising

Ahrensburg weather history for previous 24 hours

 ConditionsComfort  
Time TempWeatherWind HumidityBarometerVisibility
6:50 PM
Thu, Mar 5
43 °FPassing clouds.7 mph81%30.54 "HgN/A
6:20 PM43 °FPassing clouds.6 mph76%30.54 "HgN/A
5:50 PM45 °FPartly sunny.7 mph71%30.54 "HgN/A
5:20 PM45 °FPartly sunny.7 mph66%30.51 "HgN/A
4:50 PM45 °FScattered clouds.9 mph66%30.51 "HgN/A
4:20 PM45 °FBroken clouds.12 mph66%30.54 "HgN/A
3:50 PM46 °FBroken clouds.14 mph66%30.51 "HgN/A
3:20 PM45 °FBroken clouds.13 mph71%30.51 "HgN/A
2:50 PM45 °FPartly sunny.14 mph76%30.51 "HgN/A
2:20 PM45 °FPartly sunny.15 mph76%30.51 "HgN/A
1:50 PM45 °FPartly sunny.15 mph76%30.51 "HgN/A
1:20 PM45 °FPartly sunny.15 mph76%30.51 "HgN/A
12:50 PM45 °FPartly sunny.14 mph76%30.51 "HgN/A
12:20 PM45 °FBroken clouds.13 mph81%30.51 "HgN/A
11:50 AM45 °FBroken clouds.12 mph76%30.51 "HgN/A
11:20 AM43 °FBroken clouds.12 mph81%30.51 "HgN/A
10:50 AM43 °FBroken clouds.12 mph87%30.51 "HgN/A
10:20 AM41 °FBroken clouds.14 mph87%30.51 "HgN/A
9:50 AM41 °FPartly sunny.12 mph93%30.51 "HgN/A
9:20 AM41 °FPartly sunny.9 mph93%30.48 "HgN/A
8:50 AM39 °FPartly sunny.9 mph93%30.48 "HgN/A
8:20 AM37 °FBroken clouds.8 mph100%30.48 "HgN/A
7:50 AM37 °FPartly sunny.8 mph93%30.48 "HgN/A
7:20 AM36 °FScattered clouds.7 mph100%30.45 "HgN/A
6:50 AM36 °FPassing clouds.8 mph100%30.45 "HgN/A
6:20 AM36 °FPassing clouds.8 mph100%30.45 "HgN/A
5:50 AM36 °FPassing clouds.7 mph100%30.45 "HgN/A
5:20 AM36 °FPassing clouds.6 mph100%30.45 "HgN/A
4:20 AM36 °FPassing clouds.9 mph93%30.42 "HgN/A
3:50 AM34 °FPassing clouds.3 mph100%30.42 "HgN/A
2:50 AM34 °FClear.6 mph93%30.39 "Hg10 mi
2:20 AM36 °FClear.7 mph87%30.39 "Hg10 mi
1:50 AM36 °FClear.9 mph93%30.36 "Hg10 mi
1:20 AM36 °FPassing clouds.12 mph93%30.36 "HgN/A
12:50 AM37 °FPassing clouds.14 mph87%30.33 "HgN/A
12:20 AM39 °FPassing clouds.12 mph81%30.30 "HgN/A
11:50 PM
Wed, Mar 4
39 °FPassing clouds.16 mph81%30.27 "HgN/A
11:20 PM39 °FPassing clouds.15 mph81%30.24 "HgN/A
10:20 PM39 °FPartly cloudy.16 mph87%30.18 "HgN/A
9:50 PM39 °FSprinkles. Passing clouds.20 mph87%30.18 "HgN/A
9:20 PM39 °FSprinkles. Passing clouds.17 mph87%30.15 "HgN/A
8:50 PM39 °FSprinkles. Passing clouds.13 mph87%30.12 "HgN/A
8:20 PM39 °FSprinkles. Passing clouds.16 mph87%30.09 "HgN/A
Weather by CustomWeather, © 2015

See weather overviewHow to use our weather pages